Prescott, AZ

10:52 PM MST on December 09, 2019 (GMT -0700)
Love

Weather History for KPRC - May, 2019

Change the Weather History Date:

Wednesday, May 22, 2019

  Actual Average Record
Temperature  
Mean Temperature 49 °F 63 °F  
Max Temperature 56 °F 79 °F 93 °F (2005)
Min Temperature 42 °F 48 °F 33 °F (1975)
Degree Days  
Heating Degree Days 16    
Month to date heating degree days 190  
Since 1 July heating degree days 4239  
Cooling Degree Days 0    
Month to date cooling degree days 0  
Year to date cooling degree days 1  
Moisture  
Dew Point 32 °F    
Average Humidity 56    
Maximum Humidity 82    
Minimum Humidity 35    
Precipitation  
Precipitation T in 0.02 in 0.01 in (2006)
Month to date precipitation 0.94 0.33  
Year to date precipitation 6.46 4.41  
Sea Level Pressure  
Sea Level Pressure 29.59 in    
Wind  
Wind Speed 8 mph ()    
Max Wind Speed 22 mph    
Max Gust Speed 29 mph    
Visibility 10.0 miles    
Events Rain    
T = Trace of Precipitation, MM = Missing Value Source: Averaged Metar Reports

Daily Weather History Graph

Daily Weather History Graph

Search for Another Location

Airport or City:

Astronomy

May. 22, 2019 Rise Set
Actual Time 5:22 AM MST 7:30 PM MST
Civil Twilight 4:53 AM MST 7:59 PM MST
Nautical Twilight 4:19 AM MST 8:33 PM MST
Astronomical Twilight 3:41 AM MST 9:11 PM MST
Moon 11:16 PM MST (5/22) 8:35 AM MST (5/22)
Length of Visible Light 15h 05m
Length of Day
14h 08m
Waning Gibbous, 84% of the Moon is Illuminated
May 22
Waning Gibbous
May 26
Last Quarter
Jun 3
New
Jun 9
First Quarter
Jun 17
Full

Hourly Weather History & Observations

Time (MST) Temp. Windchill Dew Point Humidity Pressure Visibility Wind Dir Wind Speed Gust Speed Precip Events Conditions
12:53 AM 48.9 °F - 30.9 °F 50% 29.54 in 10.0 mi South 8.1 mph - N/A   Overcast
1:53 AM 48.0 °F - 32.0 °F 54% 29.54 in 10.0 mi SSW 6.9 mph - N/A   Overcast
2:53 AM 46.0 °F 43.1 °F 32.0 °F 58% 29.52 in 10.0 mi SSW 5.8 mph - N/A   Mostly Cloudy
3:53 AM 46.0 °F 41.4 °F 33.1 °F 61% 29.51 in 10.0 mi South 9.2 mph - N/A   Overcast
4:53 AM 45.0 °F 41.2 °F 33.1 °F 63% 29.50 in 10.0 mi SW 6.9 mph - N/A   Mostly Cloudy
5:53 AM 45.0 °F 40.6 °F 33.1 °F 63% 29.52 in 10.0 mi SSW 8.1 mph - N/A   Mostly Cloudy
6:53 AM 45.0 °F 39.7 °F 33.1 °F 63% 29.55 in 10.0 mi SSW 10.4 mph - N/A   Overcast
7:53 AM 45.0 °F 41.2 °F 33.1 °F 63% 29.57 in 10.0 mi SSW 6.9 mph - N/A   Overcast
8:53 AM 46.0 °F - 34.0 °F 63% 29.57 in 10.0 mi North - - N/A   Overcast
9:53 AM 48.0 °F - 33.1 °F 56% 29.58 in 10.0 mi South 10.4 mph - N/A   Mostly Cloudy
10:53 AM 51.1 °F - 32.0 °F 48% 29.59 in 10.0 mi SSW 17.3 mph - N/A   Mostly Cloudy
11:53 AM 48.9 °F - 34.0 °F 56% 29.60 in 10.0 mi SW 11.5 mph - 0.00 in Rain Light Rain
12:53 PM 51.1 °F - 30.0 °F 44% 29.60 in 10.0 mi SSW 16.1 mph - 0.00 in   Overcast
1:53 PM 52.0 °F - 32.0 °F 47% 29.61 in 10.0 mi SW 15.0 mph 24.2 mph 0.00 in   Overcast
2:53 PM 55.0 °F - 28.9 °F 37% 29.60 in 10.0 mi SSW 17.3 mph 24.2 mph N/A   Mostly Cloudy
3:53 PM 53.1 °F - 32.0 °F 45% 29.60 in 10.0 mi South 10.4 mph 21.9 mph N/A   Mostly Cloudy
4:53 PM 52.0 °F - 30.0 °F 43% 29.60 in 10.0 mi South 13.8 mph 25.3 mph N/A   Mostly Cloudy
5:53 PM 51.1 °F - 28.0 °F 41% 29.61 in 10.0 mi South 13.8 mph 23.0 mph N/A   Mostly Cloudy
6:53 PM 50.0 °F - 27.0 °F 41% 29.62 in 10.0 mi South 15.0 mph 20.7 mph N/A   Scattered Clouds
7:53 PM 46.9 °F - 30.9 °F 54% 29.64 in 10.0 mi West 5.8 mph - N/A   Clear
8:53 PM 43.0 °F 40.3 °F 34.0 °F 71% 29.66 in 10.0 mi NNW 4.6 mph - N/A   Overcast
9:53 PM 44.1 °F - 36.0 °F 73% 29.68 in 10.0 mi Calm Calm - N/A   Overcast
10:53 PM 43.0 °F 41.3 °F 34.0 °F 71% 29.67 in 10.0 mi SSW 3.5 mph - N/A   Overcast
11:53 PM 42.1 °F 37.7 °F 37.0 °F 82% 29.68 in 10.0 mi SW 6.9 mph - 0.00 in   Overcast